Simultaneous Nadir Overpasses (SNOs) Predictions

Prediction of SNOs between METOP-B and TERRA Satellite Orbit:

Table of predicted SNOs for the next 14.0 days since TLE Epoch: 6/29/2024
Index Date (METOP-B) Time (METOP-B) Lat,Lon (METOP-B) SZA (METOP-B ) Date (TERRA) Time (TERRA) Lat,Lon (TERRA) SZA (TERRA ) Distance(km) Time Diff (sec)
1 06/29/2024 03:47:26 80.05, 142.89 57.38 06/29/2024 03:47:54 80.05, 142.84 57.38 1.19 28
2 06/29/2024 04:38:03 -80.18, -48.48 122.43 06/29/2024 04:37:12 -80.19, -48.34 122.42 2.80 51
3 07/01/2024 18:17:51 80.06, -74.66 57.55 07/01/2024 18:18:30 80.05, -74.82 57.54 3.14 39
4 07/01/2024 19:08:29 -80.16, 93.69 122.29 07/01/2024 19:07:49 -80.16, 93.71 122.31 0.44 40
5 07/04/2024 08:48:17 80.03, 67.41 57.71 07/04/2024 08:49:06 80.03, 67.30 57.71 2.17 49
6 07/04/2024 09:38:55 -80.13,-124.22 122.13 07/04/2024 09:38:25 -80.13,-124.18 122.14 0.76 30
7 07/06/2024 23:18:45 79.93,-151.17 57.82 07/06/2024 23:19:43 79.94,-151.08 57.84 1.83 58
8 07/07/2024 00:09:19 -80.15, 18.40 121.84 07/07/2024 00:08:59 -80.15, 18.28 121.86 2.40 20
9 07/09/2024 13:49:11 79.88, -9.23 58.05 07/09/2024 13:50:18 79.89, -9.12 58.07 2.29 67
10 07/09/2024 14:39:45 -80.11, 160.34 121.61 07/09/2024 14:39:34 -80.10, 160.22 121.63 2.62 11
11 07/12/2024 04:21:17 75.74, 111.37 53.81 07/12/2024 04:22:30 75.39, 113.40 53.42 68.02 73



Historial Predications of SNOs between METOP-B and TERRA
